IRIDIUM 180 (43922 NORAD) Tracking and Keplerian Element Data

This shows tracking and keplerian element data for the satellite.

Feedback or suggestion? Click here.




ElementValue
Catalog43922
NameIRIDIUM 180
Epoch Orbit36330
Epoch Day353.97040426
Epoch Year2025
RAAN68.5185
Inclination86.3962
Eccentricity0.0001976
Argument of Perigee95.2707
Mean Anonmoly264.8714
Mean Motion14.34218597
Decay Rate1.73E-06
L11 43922U 19002A 25353.97040426 .00000173 00000+0 54804-4 0 9997
L22 43922 86.3962 68.5185 0001976 95.2707 264.8714 14.34218597363303



Live tracking and technical data element details for IRIDIUM 180 (NORAD 43922). IRIDIUM 180 can be tracked NOW for your location showing map with azimuth and elevation plus other details from your city location.







IsCatalogInMostPopularTable: catalog: 43922, numindb: 657
Update: records affected: 1



GetName: 43922 IRIDIUM 180

Hit Count: updated at: Sat, 07 Mar 2026 06:19:44 GMT